Year,Month,Day,Hour,Minute,Value (Times are PST for windspeed in km/hr)
2009,03,16,00,00,17.40
2009,03,16,00,01,16.40
2009,03,16,00,02,15.90
2009,03,16,00,03,20.80
2009,03,16,00,04,18.40
2009,03,16,00,05,23.10
2009,03,16,00,06,15.90
2009,03,16,00,07,15.60
2009,03,16,00,08,17.50
2009,03,16,00,09,20.90
2009,03,16,00,10,16.50
2009,03,16,00,11,12.80
2009,03,16,00,12,17.30
2009,03,16,00,13,15.80
2009,03,16,00,14,17.30
2009,03,16,00,15,25.70
2009,03,16,00,16,26.80
2009,03,16,00,17,17.70
2009,03,16,00,18,18.50
2009,03,16,00,19,19.60
2009,03,16,00,20,15.60
2009,03,16,00,21,18.60
2009,03,16,00,22,18.10
2009,03,16,00,23,16.20
2009,03,16,00,24,12.20
2009,03,16,00,25,16.40
2009,03,16,00,26,19.30
2009,03,16,00,27,22.40
2009,03,16,00,28,21.40
2009,03,16,00,29,18.60
2009,03,16,00,30,20.60
2009,03,16,00,31,21.50
2009,03,16,00,32,20.60
2009,03,16,00,33,20.10
2009,03,16,00,34,17.20
2009,03,16,00,35,35.40
2009,03,16,00,36,35.40
2009,03,16,00,37,35.40
2009,03,16,00,38,35.40
2009,03,16,00,39,35.40
2009,03,16,00,40,35.00
2009,03,16,00,41,20.10
2009,03,16,00,42,24.50
2009,03,16,00,43,20.60
2009,03,16,00,44,22.10
2009,03,16,00,45,22.90
2009,03,16,00,46,19.60
2009,03,16,00,47,14.20
2009,03,16,00,48,17.30
2009,03,16,00,49,18.80
2009,03,16,00,50,19.40
2009,03,16,00,51,20.60
2009,03,16,00,52,24.60
2009,03,16,00,53,18.90
2009,03,16,00,54,14.90
2009,03,16,00,55,20.20
2009,03,16,00,56,18.90
2009,03,16,00,57,21.10
2009,03,16,00,58,15.40
2009,03,16,00,59,17.00
2009,03,16,01,00,18.50
2009,03,16,01,01,21.60
2009,03,16,01,02,18.00
2009,03,16,01,03,22.70
2009,03,16,01,04,20.00
2009,03,16,01,05,19.40
2009,03,16,01,06,20.30
2009,03,16,01,07,17.70
2009,03,16,01,08,19.10
2009,03,16,01,09,17.20
2009,03,16,01,10,16.20
2009,03,16,01,11,14.00
2009,03,16,01,12,15.00
2009,03,16,01,13,11.10
2009,03,16,01,14,8.60
2009,03,16,01,15,13.00
2009,03,16,01,16,13.60
2009,03,16,01,17,13.60
2009,03,16,01,18,13.70
2009,03,16,01,19,11.90
2009,03,16,01,20,10.70
2009,03,16,01,21,8.80
2009,03,16,01,22,13.10
2009,03,16,01,23,12.60
2009,03,16,01,24,10.30
2009,03,16,01,25,10.00
2009,03,16,01,26,8.60
2009,03,16,01,27,9.30
2009,03,16,01,28,9.90
2009,03,16,01,29,8.10
2009,03,16,01,30,8.10
2009,03,16,01,31,8.60
2009,03,16,01,32,5.80
2009,03,16,01,33,7.60
2009,03,16,01,34,4.50
2009,03,16,01,35,5.30
2009,03,16,01,36,5.90
2009,03,16,01,37,11.30
2009,03,16,01,38,19.00
2009,03,16,01,39,18.80
2009,03,16,01,40,15.60
2009,03,16,01,41,17.70
2009,03,16,01,42,15.30
2009,03,16,01,43,16.90
2009,03,16,01,44,15.40
2009,03,16,01,45,14.90
2009,03,16,01,46,10.30
2009,03,16,01,47,13.00
2009,03,16,01,48,12.90
2009,03,16,01,49,12.90
2009,03,16,01,50,12.90
2009,03,16,01,51,12.90
2009,03,16,01,52,11.70
2009,03,16,01,53,7.10
2009,03,16,01,54,6.60
2009,03,16,01,55,5.70
2009,03,16,01,56,4.90
2009,03,16,01,57,8.50
2009,03,16,01,58,6.70
2009,03,16,01,59,7.80
2009,03,16,02,00,5.90
2009,03,16,02,01,11.90
2009,03,16,02,02,8.50
2009,03,16,02,03,9.70
2009,03,16,02,04,9.30
2009,03,16,02,05,9.70
2009,03,16,02,06,14.10
2009,03,16,02,07,13.20
2009,03,16,02,08,11.90
2009,03,16,02,09,8.90
2009,03,16,02,10,9.00
2009,03,16,02,11,9.10
2009,03,16,02,12,11.00
2009,03,16,02,13,10.40
2009,03,16,02,14,15.20
2009,03,16,02,15,15.80
2009,03,16,02,16,12.00
2009,03,16,02,17,10.80
2009,03,16,02,18,11.30
2009,03,16,02,19,9.90
2009,03,16,02,20,11.40
2009,03,16,02,21,19.00
2009,03,16,02,22,15.70
2009,03,16,02,23,11.40
2009,03,16,02,24,14.10
2009,03,16,02,25,11.90
2009,03,16,02,26,14.30
2009,03,16,02,27,12.70
2009,03,16,02,28,10.00
2009,03,16,02,29,18.20
2009,03,16,02,30,12.50
2009,03,16,02,31,18.40
2009,03,16,02,32,13.10
2009,03,16,02,33,17.80
2009,03,16,02,34,15.20
2009,03,16,02,35,19.40
2009,03,16,02,36,19.80
2009,03,16,02,37,17.00
2009,03,16,02,38,13.70
2009,03,16,02,39,8.60
2009,03,16,02,40,9.30
2009,03,16,02,41,15.00
2009,03,16,02,42,15.70
2009,03,16,02,43,10.80
2009,03,16,02,44,13.40
2009,03,16,02,45,13.00
2009,03,16,02,46,14.60
2009,03,16,02,47,12.50
2009,03,16,02,48,15.20
2009,03,16,02,49,15.80
2009,03,16,02,50,8.50
2009,03,16,02,51,11.10
2009,03,16,02,52,9.90
2009,03,16,02,53,11.60
2009,03,16,02,54,15.20
2009,03,16,02,55,11.50
2009,03,16,02,56,12.00
2009,03,16,02,57,14.60
2009,03,16,02,58,15.60
2009,03,16,02,59,12.50
2009,03,16,03,00,11.30
2009,03,16,03,01,11.30
2009,03,16,03,02,11.30
2009,03,16,03,03,11.30
2009,03,16,03,04,15.10
2009,03,16,03,05,15.60
2009,03,16,03,06,9.10
2009,03,16,03,07,9.20
2009,03,16,03,08,13.00
2009,03,16,03,09,13.50
2009,03,16,03,10,13.40
2009,03,16,03,11,12.80
2009,03,16,03,12,11.50
2009,03,16,03,13,13.50
2009,03,16,03,14,10.50
2009,03,16,03,15,13.00
2009,03,16,03,16,15.70
2009,03,16,03,17,13.70
2009,03,16,03,18,8.70
2009,03,16,03,19,11.50
2009,03,16,03,20,16.00
2009,03,16,03,21,13.70
2009,03,16,03,22,15.90
2009,03,16,03,23,13.70
2009,03,16,03,24,10.40
2009,03,16,03,25,13.70
2009,03,16,03,26,11.30
2009,03,16,03,27,10.80
2009,03,16,03,28,13.00
2009,03,16,03,29,6.40
2009,03,16,03,30,9.00
2009,03,16,03,31,12.20
2009,03,16,03,32,14.10
2009,03,16,03,33,16.90
2009,03,16,03,34,12.70
2009,03,16,03,35,11.90
2009,03,16,03,36,9.60
2009,03,16,03,37,13.70
2009,03,16,03,38,10.90
2009,03,16,03,39,11.30
2009,03,16,03,40,15.10
2009,03,16,03,41,12.40
2009,03,16,03,42,14.40
2009,03,16,03,43,9.10
2009,03,16,03,44,11.20
2009,03,16,03,45,12.30
2009,03,16,03,46,15.80
2009,03,16,03,47,10.70
2009,03,16,03,48,10.80
2009,03,16,03,49,11.30
2009,03,16,03,50,7.70
2009,03,16,03,51,12.40
2009,03,16,03,52,9.70
2009,03,16,03,53,10.10
2009,03,16,03,54,13.10
2009,03,16,03,55,9.50
2009,03,16,03,56,10.80
2009,03,16,03,57,11.20
2009,03,16,03,58,8.60
2009,03,16,03,59,12.10
2009,03,16,04,00,10.40
2009,03,16,04,01,8.40
2009,03,16,04,02,7.80
2009,03,16,04,03,8.60
2009,03,16,04,04,6.70
2009,03,16,04,05,8.60
2009,03,16,04,06,5.60
2009,03,16,04,07,4.30
2009,03,16,04,08,5.10
2009,03,16,04,09,3.60
2009,03,16,04,10,1.60
2009,03,16,04,11,1.60
2009,03,16,04,12,1.60
2009,03,16,04,13,1.60
2009,03,16,04,14,1.60
2009,03,16,04,15,1.60
2009,03,16,04,16,3.20
2009,03,16,04,17,2.50
2009,03,16,04,18,0.20
2009,03,16,04,19,2.30
2009,03,16,04,20,0.30
2009,03,16,04,21,0.00
2009,03,16,04,22,0.10
2009,03,16,04,23,2.10
2009,03,16,04,24,1.40
2009,03,16,04,25,0.80
2009,03,16,04,26,0.00
2009,03,16,04,27,0.00
2009,03,16,04,28,0.30
2009,03,16,04,29,0.70
2009,03,16,04,30,1.50
2009,03,16,04,31,0.00
2009,03,16,04,32,1.00
2009,03,16,04,33,0.00
2009,03,16,04,34,0.00
2009,03,16,04,35,0.20
2009,03,16,04,36,0.00
2009,03,16,04,37,0.00
2009,03,16,04,38,0.00
2009,03,16,04,39,0.00
2009,03,16,04,40,3.40
2009,03,16,04,41,0.60
2009,03,16,04,42,4.30
2009,03,16,04,43,4.70
2009,03,16,04,44,2.90
2009,03,16,04,45,2.40
2009,03,16,04,46,5.70
2009,03,16,04,47,8.80
2009,03,16,04,48,6.70
2009,03,16,04,49,6.10
2009,03,16,04,50,6.90
2009,03,16,04,51,13.60
2009,03,16,04,52,9.80
2009,03,16,04,53,9.40
2009,03,16,04,54,11.30
2009,03,16,04,55,9.80
2009,03,16,04,56,11.80
2009,03,16,04,57,10.80
2009,03,16,04,58,13.00
2009,03,16,04,59,7.70
2009,03,16,05,00,11.10
2009,03,16,05,01,7.40
2009,03,16,05,02,6.10
2009,03,16,05,03,10.80
2009,03,16,05,04,7.90
2009,03,16,05,05,9.70
2009,03,16,05,06,11.30
2009,03,16,05,07,8.60
2009,03,16,05,08,7.40
2009,03,16,05,09,7.30
2009,03,16,05,10,9.90
2009,03,16,05,11,8.00
2009,03,16,05,12,4.90
2009,03,16,05,13,5.00
2009,03,16,05,14,6.40
2009,03,16,05,15,7.50
2009,03,16,05,16,6.30
2009,03,16,05,17,6.30
2009,03,16,05,18,2.20
2009,03,16,05,19,2.70
2009,03,16,05,20,5.70
2009,03,16,05,21,4.80
2009,03,16,05,22,3.50
2009,03,16,05,23,0.80
2009,03,16,05,24,0.10
2009,03,16,05,25,0.10
2009,03,16,05,26,0.40
2009,03,16,05,27,1.40
2009,03,16,05,28,1.40
2009,03,16,05,29,1.60
2009,03,16,05,30,3.30
2009,03,16,05,31,3.70
2009,03,16,05,32,5.00
2009,03,16,05,33,2.70
2009,03,16,05,34,1.30
2009,03,16,05,35,2.20
2009,03,16,05,36,2.90
2009,03,16,05,37,4.10
2009,03,16,05,38,4.40
2009,03,16,05,39,3.50
2009,03,16,05,40,2.50
2009,03,16,05,41,1.10
2009,03,16,05,42,1.00
2009,03,16,05,43,2.40
2009,03,16,05,44,1.90
2009,03,16,05,45,2.80
2009,03,16,05,46,3.00
2009,03,16,05,47,1.40
2009,03,16,05,48,4.00
2009,03,16,05,49,3.30
2009,03,16,05,50,4.10
2009,03,16,05,51,5.80
2009,03,16,05,52,2.90
2009,03,16,05,53,5.80
2009,03,16,05,54,6.50
2009,03,16,05,55,5.20
2009,03,16,05,56,2.50
2009,03,16,05,57,2.10
2009,03,16,05,58,3.80
2009,03,16,05,59,1.50
2009,03,16,06,00,0.90
2009,03,16,06,01,3.00
2009,03,16,06,02,2.20
2009,03,16,06,03,3.90
2009,03,16,06,04,2.30
2009,03,16,06,05,1.10
2009,03,16,06,06,4.40
2009,03,16,06,07,3.50
2009,03,16,06,08,1.10
2009,03,16,06,09,0.40
2009,03,16,06,10,3.10
2009,03,16,06,11,2.20
2009,03,16,06,12,3.00
2009,03,16,06,13,3.20
2009,03,16,06,14,0.50
2009,03,16,06,15,2.00
2009,03,16,06,16,3.00
2009,03,16,06,17,1.40
2009,03,16,06,18,1.40
2009,03,16,06,19,0.40
2009,03,16,06,20,1.60
2009,03,16,06,21,0.90
2009,03,16,06,22,2.40
2009,03,16,06,23,1.70
2009,03,16,06,24,1.80
2009,03,16,06,25,3.50
2009,03,16,06,26,2.40
2009,03,16,06,27,3.20
2009,03,16,06,28,1.10
2009,03,16,06,29,1.40
2009,03,16,06,30,2.20
2009,03,16,06,31,1.90
2009,03,16,06,32,1.60
2009,03,16,06,33,1.40
2009,03,16,06,34,1.90
2009,03,16,06,35,0.80
2009,03,16,06,36,2.20
2009,03,16,06,37,0.40
2009,03,16,06,38,3.30
2009,03,16,06,39,1.00
2009,03,16,06,40,2.00
2009,03,16,06,41,2.70
2009,03,16,06,42,2.70
2009,03,16,06,43,1.40
2009,03,16,06,44,1.80
2009,03,16,06,45,3.60
2009,03,16,06,46,3.80
2009,03,16,06,47,3.40
2009,03,16,06,48,3.00
2009,03,16,06,49,0.40
2009,03,16,06,50,1.10
2009,03,16,06,51,3.40
2009,03,16,06,52,0.70
2009,03,16,06,53,2.90
2009,03,16,06,54,3.20
2009,03,16,06,55,2.50
2009,03,16,06,56,3.70
2009,03,16,06,57,2.50
2009,03,16,06,58,2.30
2009,03,16,06,59,0.60
2009,03,16,07,00,2.10
2009,03,16,07,01,0.50
2009,03,16,07,02,2.70
2009,03,16,07,03,2.40
2009,03,16,07,04,0.70
2009,03,16,07,05,2.20
2009,03,16,07,06,1.60
2009,03,16,07,07,3.30
2009,03,16,07,08,0.10
2009,03,16,07,09,0.60
2009,03,16,07,10,0.00
2009,03,16,07,11,0.40
2009,03,16,07,12,0.00
2009,03,16,07,13,1.40
2009,03,16,07,14,2.70
2009,03,16,07,15,0.30
2009,03,16,07,16,0.00
2009,03,16,07,17,0.50
2009,03,16,07,18,2.20
2009,03,16,07,19,2.10
2009,03,16,07,20,4.00
2009,03,16,07,21,3.00
2009,03,16,07,22,2.30
2009,03,16,07,23,0.20
2009,03,16,07,24,0.50
2009,03,16,07,25,0.00
2009,03,16,07,26,0.00
2009,03,16,07,27,0.00
2009,03,16,07,28,0.00
2009,03,16,07,29,0.00
2009,03,16,07,30,0.00
2009,03,16,07,31,0.00
2009,03,16,07,32,0.00
2009,03,16,07,33,0.00
2009,03,16,07,34,0.00
2009,03,16,07,35,0.00
2009,03,16,07,36,0.00
2009,03,16,07,37,0.00
2009,03,16,07,38,0.00
2009,03,16,07,39,0.00
2009,03,16,07,40,2.80
2009,03,16,07,41,0.70
2009,03,16,07,42,0.00
2009,03,16,07,43,0.00
2009,03,16,07,44,0.80
2009,03,16,07,45,0.80
2009,03,16,07,46,0.00
2009,03,16,07,47,0.00
2009,03,16,07,48,0.00
2009,03,16,07,49,0.00
2009,03,16,07,50,0.00
2009,03,16,07,51,0.00
2009,03,16,07,52,0.00
2009,03,16,07,53,0.00
2009,03,16,07,54,0.00
2009,03,16,07,55,0.00
2009,03,16,07,56,0.10
2009,03,16,07,57,0.00
2009,03,16,07,58,0.10
2009,03,16,07,59,0.10
2009,03,16,08,00,0.30
2009,03,16,08,01,0.00
2009,03,16,08,02,0.00
2009,03,16,08,03,0.00
2009,03,16,08,04,0.00
2009,03,16,08,05,0.00
2009,03,16,08,06,0.00
2009,03,16,08,07,0.00
2009,03,16,08,08,1.20
2009,03,16,08,09,1.60
2009,03,16,08,10,1.50
2009,03,16,08,11,0.00
2009,03,16,08,12,0.00
2009,03,16,08,13,0.10
2009,03,16,08,14,1.00
2009,03,16,08,15,0.30
2009,03,16,08,16,0.00
2009,03,16,08,17,2.20
2009,03,16,08,18,1.10
2009,03,16,08,19,1.00
2009,03,16,08,20,2.70
2009,03,16,08,21,1.20
2009,03,16,08,22,0.00
2009,03,16,08,23,0.00
2009,03,16,08,24,0.00
2009,03,16,08,25,0.00
2009,03,16,08,26,0.00
2009,03,16,08,27,0.00
2009,03,16,08,28,0.00
2009,03,16,08,29,0.00
2009,03,16,08,30,1.60
2009,03,16,08,31,2.00
2009,03,16,08,32,1.00
2009,03,16,08,33,0.70
2009,03,16,08,34,1.20
2009,03,16,08,35,1.40
2009,03,16,08,36,1.80
2009,03,16,08,37,0.40
2009,03,16,08,38,1.60
2009,03,16,08,39,1.70
2009,03,16,08,40,0.00
2009,03,16,08,41,0.20
2009,03,16,08,42,0.00
2009,03,16,08,43,0.00
2009,03,16,08,44,0.00
2009,03,16,08,45,1.20
2009,03,16,08,46,2.30
2009,03,16,08,47,0.00
2009,03,16,08,48,0.00
2009,03,16,08,49,0.00
2009,03,16,08,50,0.00
2009,03,16,08,51,0.20
2009,03,16,08,52,1.20
2009,03,16,08,53,1.40
2009,03,16,08,54,0.40
2009,03,16,08,55,0.00
2009,03,16,08,56,0.00
2009,03,16,08,57,0.00
2009,03,16,08,58,0.00
2009,03,16,08,59,0.00
2009,03,16,09,00,0.00
2009,03,16,09,01,0.00
2009,03,16,09,02,0.00
2009,03,16,09,03,0.20
2009,03,16,09,04,0.00
2009,03,16,09,05,0.00
2009,03,16,09,06,0.00
2009,03,16,09,07,0.00
2009,03,16,09,08,0.00
2009,03,16,09,09,0.00
2009,03,16,09,10,0.00
2009,03,16,09,11,0.00
2009,03,16,09,12,0.00
2009,03,16,09,13,0.00
2009,03,16,09,14,0.00
2009,03,16,09,15,0.00
2009,03,16,09,16,0.00
2009,03,16,09,17,0.00
2009,03,16,09,18,0.00
2009,03,16,09,19,0.00
2009,03,16,09,20,0.00
2009,03,16,09,21,0.00
2009,03,16,09,22,0.00
2009,03,16,09,23,0.00
2009,03,16,09,24,0.00
2009,03,16,09,25,0.00
2009,03,16,09,26,0.00
2009,03,16,09,27,0.00
2009,03,16,09,28,0.00
2009,03,16,09,29,0.00
2009,03,16,09,30,0.00
2009,03,16,09,31,0.00
2009,03,16,09,32,0.00
2009,03,16,09,33,0.00
2009,03,16,09,34,0.00
2009,03,16,09,35,0.00
2009,03,16,09,36,0.00
2009,03,16,09,37,0.00
2009,03,16,09,38,0.00
2009,03,16,09,39,0.00
2009,03,16,09,40,0.00
2009,03,16,09,41,0.00
2009,03,16,09,42,0.00
2009,03,16,09,43,0.00
2009,03,16,09,44,0.00
2009,03,16,09,45,0.00
2009,03,16,09,46,0.00
2009,03,16,09,47,0.00
2009,03,16,09,48,0.00
2009,03,16,09,49,0.00
2009,03,16,09,50,0.00
2009,03,16,09,51,0.30
2009,03,16,09,52,0.60
2009,03,16,09,53,0.30
2009,03,16,09,54,2.70
2009,03,16,09,55,3.20
2009,03,16,09,56,3.10
2009,03,16,09,57,2.60
2009,03,16,09,58,3.40
2009,03,16,09,59,3.20
2009,03,16,10,00,4.10
2009,03,16,10,01,2.10
2009,03,16,10,02,3.90
2009,03,16,10,03,2.00
2009,03,16,10,04,2.50
2009,03,16,10,05,3.70
2009,03,16,10,06,1.60
2009,03,16,10,07,0.80
2009,03,16,10,08,0.60
2009,03,16,10,09,1.80
2009,03,16,10,10,1.80
2009,03,16,10,11,1.50
2009,03,16,10,12,3.10
2009,03,16,10,13,3.10
2009,03,16,10,14,5.70
2009,03,16,10,15,4.90
2009,03,16,10,16,1.40
2009,03,16,10,17,1.30
2009,03,16,10,18,2.20
2009,03,16,10,19,2.60
2009,03,16,10,20,1.20
2009,03,16,10,21,0.40
2009,03,16,10,22,2.60
2009,03,16,10,23,3.40
2009,03,16,10,24,2.90
2009,03,16,10,25,2.80
2009,03,16,10,26,4.80
2009,03,16,10,27,5.10
2009,03,16,10,28,5.70
2009,03,16,10,29,6.20
2009,03,16,10,30,4.50
2009,03,16,10,31,1.30
2009,03,16,10,32,3.70
2009,03,16,10,33,3.50
2009,03,16,10,34,3.50
2009,03,16,10,35,4.00
2009,03,16,10,36,5.00
2009,03,16,10,37,4.00
2009,03,16,10,38,2.30
2009,03,16,10,39,2.20
2009,03,16,10,40,2.70
2009,03,16,10,41,2.50
2009,03,16,10,42,5.00
2009,03,16,10,43,3.70
2009,03,16,10,44,1.00
2009,03,16,10,45,2.50
2009,03,16,10,46,3.70
2009,03,16,10,47,2.80
2009,03,16,10,48,2.20
2009,03,16,10,49,6.40
2009,03,16,10,50,4.40
2009,03,16,10,51,5.00
2009,03,16,10,52,6.40
2009,03,16,10,53,6.90
2009,03,16,10,54,2.90
2009,03,16,10,55,5.80
2009,03,16,10,56,5.80
2009,03,16,10,57,4.20
2009,03,16,10,58,7.00
2009,03,16,10,59,7.00
2009,03,16,11,00,4.50
2009,03,16,11,01,4.10
2009,03,16,11,02,3.50
2009,03,16,11,03,1.90
2009,03,16,11,04,3.30
2009,03,16,11,05,2.20
2009,03,16,11,06,1.40
2009,03,16,11,07,2.60
2009,03,16,11,08,0.00
2009,03,16,11,09,0.00
2009,03,16,11,10,0.00
2009,03,16,11,11,0.00
2009,03,16,11,12,0.00
2009,03,16,11,13,1.10
2009,03,16,11,14,0.90
2009,03,16,11,15,0.50
2009,03,16,11,16,2.20
2009,03,16,11,17,0.90
2009,03,16,11,18,1.10
2009,03,16,11,19,0.30
2009,03,16,11,20,0.40
2009,03,16,11,21,1.20
2009,03,16,11,22,2.70
2009,03,16,11,23,2.80
2009,03,16,11,24,2.10
2009,03,16,11,25,3.00
2009,03,16,11,26,2.90
2009,03,16,11,27,2.70
2009,03,16,11,28,2.30
2009,03,16,11,29,1.10
2009,03,16,11,30,0.30
2009,03,16,11,31,0.40
2009,03,16,11,32,2.40
2009,03,16,11,33,2.90
2009,03,16,11,34,1.90
2009,03,16,11,35,1.70
2009,03,16,11,36,1.00
2009,03,16,11,37,0.30
2009,03,16,11,38,0.30
2009,03,16,11,39,0.00
2009,03,16,11,40,0.00
2009,03,16,11,41,0.00
2009,03,16,11,42,0.50
2009,03,16,11,43,0.70
2009,03,16,11,44,2.10
2009,03,16,11,45,2.60
2009,03,16,11,46,2.60
2009,03,16,11,47,0.90
2009,03,16,11,48,0.80
2009,03,16,11,49,0.50
2009,03,16,11,50,0.00
2009,03,16,11,51,0.00
2009,03,16,11,52,0.00
2009,03,16,11,53,0.00
2009,03,16,11,54,0.00
2009,03,16,11,55,0.40
2009,03,16,11,56,0.90
2009,03,16,11,57,0.00
2009,03,16,11,58,0.20
2009,03,16,11,59,1.40
2009,03,16,12,00,2.60
2009,03,16,12,01,1.00
2009,03,16,12,02,1.60
2009,03,16,12,03,0.80
2009,03,16,12,04,0.80
2009,03,16,12,05,0.90
2009,03,16,12,06,1.10
2009,03,16,12,07,0.20
2009,03,16,12,08,0.10
2009,03,16,12,09,0.60
2009,03,16,12,10,0.00
2009,03,16,12,11,0.00
2009,03,16,12,12,2.10
2009,03,16,12,13,1.10
2009,03,16,12,14,0.00
2009,03,16,12,15,0.30
2009,03,16,12,16,2.40
2009,03,16,12,17,1.20
2009,03,16,12,18,0.60
2009,03,16,12,19,2.20
2009,03,16,12,20,2.20
2009,03,16,12,21,0.30
2009,03,16,12,22,0.60
2009,03,16,12,23,1.20
2009,03,16,12,24,6.00
2009,03,16,12,25,6.20
2009,03,16,12,26,1.20
2009,03,16,12,27,4.40
2009,03,16,12,28,0.70
2009,03,16,12,29,4.70
2009,03,16,12,30,4.40
2009,03,16,12,31,2.60
2009,03,16,12,32,3.00
2009,03,16,12,33,0.10
2009,03,16,12,34,2.90
2009,03,16,12,35,0.90
2009,03,16,12,36,4.40
2009,03,16,12,37,4.60
2009,03,16,12,38,2.70
2009,03,16,12,39,3.00
2009,03,16,12,40,4.80
2009,03,16,12,41,2.40
2009,03,16,12,42,3.50
2009,03,16,12,43,1.00
2009,03,16,12,44,1.50
2009,03,16,12,45,3.50
2009,03,16,12,46,1.70
2009,03,16,12,47,4.10
2009,03,16,12,48,3.10
2009,03,16,12,49,2.50
2009,03,16,12,50,2.10
2009,03,16,12,51,3.70
2009,03,16,12,52,1.10
2009,03,16,12,53,4.60
2009,03,16,12,54,4.30
2009,03,16,12,55,4.70
2009,03,16,12,56,4.60
2009,03,16,12,57,3.30
2009,03,16,12,58,0.90
2009,03,16,12,59,0.00
2009,03,16,13,00,2.20
2009,03,16,13,01,0.80
2009,03,16,13,02,3.60
2009,03,16,13,03,4.50
2009,03,16,13,04,2.50
2009,03,16,13,05,2.40
2009,03,16,13,06,6.60
2009,03,16,13,07,7.20
2009,03,16,13,08,2.80
2009,03,16,13,09,6.90
2009,03,16,13,10,11.10
2009,03,16,13,11,5.80
2009,03,16,13,12,3.40
2009,03,16,13,13,12.30
2009,03,16,13,14,7.70
2009,03,16,13,15,6.30
2009,03,16,13,16,8.10
2009,03,16,13,17,7.30
2009,03,16,13,18,5.10
2009,03,16,13,19,4.70
2009,03,16,13,20,4.00
2009,03,16,13,21,4.00
2009,03,16,13,22,3.40
2009,03,16,13,23,7.20
2009,03,16,13,24,6.90
2009,03,16,13,25,11.50
2009,03,16,13,26,11.80
2009,03,16,13,27,5.10
2009,03,16,13,28,7.50
2009,03,16,13,29,6.30
2009,03,16,13,30,8.70
2009,03,16,13,31,6.70
2009,03,16,13,32,6.10
2009,03,16,13,33,3.40
2009,03,16,13,34,6.30
2009,03,16,13,35,9.40
2009,03,16,13,36,9.80
2009,03,16,13,37,11.20
2009,03,16,13,38,5.20
2009,03,16,13,39,10.10
2009,03,16,13,40,8.40
2009,03,16,13,41,10.10
2009,03,16,13,42,7.90
2009,03,16,13,43,8.00
2009,03,16,13,44,13.00
2009,03,16,13,45,7.50
2009,03,16,13,46,5.50
2009,03,16,13,47,7.00
2009,03,16,13,48,8.00
2009,03,16,13,49,10.50
2009,03,16,13,50,9.00
2009,03,16,13,51,6.10
2009,03,16,13,52,8.00
2009,03,16,13,53,5.70
2009,03,16,13,54,11.40
2009,03,16,13,55,4.70
2009,03,16,13,56,5.30
2009,03,16,13,57,6.20
2009,03,16,13,58,6.00
2009,03,16,13,59,5.70
2009,03,16,14,00,7.30
2009,03,16,14,01,7.20
2009,03,16,14,02,9.50
2009,03,16,14,03,7.00
2009,03,16,14,04,8.50
2009,03,16,14,05,6.40
2009,03,16,14,06,10.50
2009,03,16,14,07,6.70
2009,03,16,14,08,8.70
2009,03,16,14,09,8.50
2009,03,16,14,10,8.80
2009,03,16,14,11,6.40
2009,03,16,14,12,6.10
2009,03,16,14,13,4.00
2009,03,16,14,14,7.70
2009,03,16,14,15,7.50
2009,03,16,14,16,7.40
2009,03,16,14,17,8.60
2009,03,16,14,18,6.70
2009,03,16,14,19,7.40
2009,03,16,14,20,6.90
2009,03,16,14,21,7.70
2009,03,16,14,22,9.20
2009,03,16,14,23,3.90
2009,03,16,14,24,5.30
2009,03,16,14,25,6.60
2009,03,16,14,26,6.40
2009,03,16,14,27,8.90
2009,03,16,14,28,5.10
2009,03,16,14,29,5.80
2009,03,16,14,30,5.90
2009,03,16,14,31,6.00
2009,03,16,14,32,6.10
2009,03,16,14,33,8.30
2009,03,16,14,34,9.40
2009,03,16,14,35,9.70
2009,03,16,14,36,7.90
2009,03,16,14,37,8.60
2009,03,16,14,38,11.40
2009,03,16,14,39,7.50
2009,03,16,14,40,8.00
2009,03,16,14,41,8.70
2009,03,16,14,42,7.00
2009,03,16,14,43,6.60
2009,03,16,14,44,8.00
2009,03,16,14,45,7.60
2009,03,16,14,46,9.20
2009,03,16,14,47,10.10
2009,03,16,14,48,9.10
2009,03,16,14,49,7.10
2009,03,16,14,50,6.70
2009,03,16,14,51,4.50
2009,03,16,14,52,5.20
2009,03,16,14,53,9.30
2009,03,16,14,54,11.40
2009,03,16,14,55,7.90
2009,03,16,14,56,7.90
2009,03,16,14,57,8.70
2009,03,16,14,58,10.20
2009,03,16,14,59,5.80
2009,03,16,15,00,6.90
2009,03,16,15,01,10.10
2009,03,16,15,02,7.80
2009,03,16,15,03,6.10
2009,03,16,15,04,4.70
2009,03,16,15,05,6.30
2009,03,16,15,06,11.90
2009,03,16,15,07,9.70
2009,03,16,15,08,6.10
2009,03,16,15,09,8.00
2009,03,16,15,10,5.80
2009,03,16,15,11,2.60
2009,03,16,15,12,7.40
2009,03,16,15,13,8.10
2009,03,16,15,14,10.20
2009,03,16,15,15,5.90
2009,03,16,15,16,4.70
2009,03,16,15,17,8.10
2009,03,16,15,18,4.70
2009,03,16,15,19,10.00
2009,03,16,15,20,10.90
2009,03,16,15,21,14.70
2009,03,16,15,22,8.10
2009,03,16,15,23,8.10
2009,03,16,15,24,8.00
2009,03,16,15,25,4.00
2009,03,16,15,26,8.00
2009,03,16,15,27,7.80
2009,03,16,15,28,6.50
2009,03,16,15,29,6.40
2009,03,16,15,30,8.10
2009,03,16,15,31,5.40
2009,03,16,15,32,12.30
2009,03,16,15,33,7.00
2009,03,16,15,34,6.40
2009,03,16,15,35,6.90
2009,03,16,15,36,7.10
2009,03,16,15,37,7.20
2009,03,16,15,38,8.50
2009,03,16,15,39,8.30
2009,03,16,15,40,9.40
2009,03,16,15,41,8.10
2009,03,16,15,42,10.20
2009,03,16,15,43,8.10
2009,03,16,15,44,6.20
2009,03,16,15,45,6.80
2009,03,16,15,46,10.30
2009,03,16,15,47,13.90
2009,03,16,15,48,6.20
2009,03,16,15,49,10.00
2009,03,16,15,50,10.10
2009,03,16,15,51,9.40
2009,03,16,15,52,6.70
2009,03,16,15,53,6.60
2009,03,16,15,54,8.10
2009,03,16,15,55,6.50
2009,03,16,15,56,4.90
2009,03,16,15,57,6.00
2009,03,16,15,58,4.90
2009,03,16,15,59,7.00
2009,03,16,16,00,8.30
2009,03,16,16,01,5.80
2009,03,16,16,02,5.30
2009,03,16,16,03,4.00
2009,03,16,16,04,6.40
2009,03,16,16,05,6.80
2009,03,16,16,06,5.60
2009,03,16,16,07,4.40
2009,03,16,16,08,3.40
2009,03,16,16,09,3.30
2009,03,16,16,10,6.60
2009,03,16,16,11,7.60
2009,03,16,16,12,5.30
2009,03,16,16,13,5.40
2009,03,16,16,14,4.20
2009,03,16,16,15,5.90
2009,03,16,16,16,5.80
2009,03,16,16,17,6.50
2009,03,16,16,18,7.40
2009,03,16,16,19,9.70
2009,03,16,16,20,11.00
2009,03,16,16,21,9.10
2009,03,16,16,22,10.20
2009,03,16,16,23,9.60
2009,03,16,16,24,9.10
2009,03,16,16,25,11.10
2009,03,16,16,26,11.00
2009,03,16,16,27,9.70
2009,03,16,16,28,10.70
2009,03,16,16,29,11.70
2009,03,16,16,30,11.40
2009,03,16,16,31,10.90
2009,03,16,16,32,5.80
2009,03,16,16,33,5.60
2009,03,16,16,34,7.90
2009,03,16,16,35,5.50
2009,03,16,16,36,7.00
2009,03,16,16,37,6.40
2009,03,16,16,38,5.30
2009,03,16,16,39,4.60
2009,03,16,16,40,3.80
2009,03,16,16,41,5.20
2009,03,16,16,42,3.60
2009,03,16,16,43,2.00
2009,03,16,16,44,1.20
2009,03,16,16,45,0.00
2009,03,16,16,46,0.20
2009,03,16,16,47,2.90
2009,03,16,16,48,4.10
2009,03,16,16,49,1.20
2009,03,16,16,50,0.30
2009,03,16,16,51,0.00
2009,03,16,16,52,0.00
2009,03,16,16,53,0.00
2009,03,16,16,54,0.50
2009,03,16,16,55,0.20
2009,03,16,16,56,1.50
2009,03,16,16,57,1.20
2009,03,16,16,58,1.70
2009,03,16,16,59,2.70
2009,03,16,17,00,3.40
2009,03,16,17,01,4.60
2009,03,16,17,02,4.70
2009,03,16,17,03,5.10
2009,03,16,17,04,3.60
2009,03,16,17,05,3.90
2009,03,16,17,06,4.40
2009,03,16,17,07,4.90
2009,03,16,17,08,4.10
2009,03,16,17,09,2.50
2009,03,16,17,10,1.80
2009,03,16,17,11,3.20
2009,03,16,17,12,3.50
2009,03,16,17,13,1.60
2009,03,16,17,14,2.50
2009,03,16,17,15,0.60
2009,03,16,17,16,1.60
2009,03,16,17,17,1.00
2009,03,16,17,18,2.60
2009,03,16,17,19,3.10
2009,03,16,17,20,7.70
2009,03,16,17,21,8.50
2009,03,16,17,22,6.40
2009,03,16,17,23,5.50
2009,03,16,17,24,2.00
2009,03,16,17,25,5.80
2009,03,16,17,26,8.10
2009,03,16,17,27,5.30
2009,03,16,17,28,4.80
2009,03,16,17,29,7.80
2009,03,16,17,30,8.70
2009,03,16,17,31,9.70
2009,03,16,17,32,5.20
2009,03,16,17,33,3.40
2009,03,16,17,34,5.50
2009,03,16,17,35,9.30
2009,03,16,17,36,3.40
2009,03,16,17,37,2.80
2009,03,16,17,38,1.90
2009,03,16,17,39,5.70
2009,03,16,17,40,6.30
2009,03,16,17,41,12.20
2009,03,16,17,42,10.10
2009,03,16,17,43,11.30
2009,03,16,17,44,7.40
2009,03,16,17,45,7.30
2009,03,16,17,46,6.60
2009,03,16,17,47,7.00
2009,03,16,17,48,8.50
2009,03,16,17,49,11.30
2009,03,16,17,50,5.20
2009,03,16,17,51,7.20
2009,03,16,17,52,10.00
2009,03,16,17,53,7.40
2009,03,16,17,54,4.60
2009,03,16,17,55,6.50